This is the latest recevied weather packets stored in our database for station/object KB4MOX. If no packets are shown the sender has not sent any weather packets the latest 10 day(s).
| Time | Temp. | Humidity | Pressure | Rain* | Wind** | Luminosity | Snow |
|---|---|---|---|---|---|---|---|
| 1778273308 | 21.67° C | 57% | 1014.7 hPa | 0 mm | - | 145 W/m² | - |
| 1778273005 | 22.22° C | 56% | 1014.7 hPa | 0 mm | - | 146 W/m² | - |
| 1778272701 | 22.22° C | 59% | 1014.8 hPa | 0 mm | - | 170 W/m² | - |
| 1778272397 | 22.22° C | 56% | 1014.8 hPa | 0 mm | - | 187 W/m² | - |
| 1778272093 | 22.22° C | 56% | 1014.6 hPa | 0 mm | - | 187 W/m² | - |
| 1778271791 | 22.22° C | 55% | 1014.5 hPa | 0 mm | - | 198 W/m² | - |
| 1778271488 | 22.22° C | 55% | 1014.6 hPa | 0 mm | - | 260 W/m² | - |
| 1778271185 | 22.22° C | 54% | 1014.6 hPa | 0 mm | - | 224 W/m² | - |
| 1778270881 | 22.22° C | 55% | 1014.8 hPa | 0 mm | - | 220 W/m² | - |
| 1778270577 | 21.67° C | 54% | 1014.7 hPa | 0 mm | - | 225 W/m² | - |
| 1778270273 | 21.67° C | 54% | 1014.6 hPa | 0 mm | - | 203 W/m² | - |
| 1778269970 | 22.22° C | 56% | 1015 hPa | 0 mm | - | 160 W/m² | - |
| 1778269666 | 22.22° C | 55% | 1015 hPa | 0 mm | - | 172 W/m² | - |
| 1778269364 | 22.22° C | 54% | 1015.1 hPa | 0 mm | - | 186 W/m² | - |
| 1778269061 | 22.22° C | 56% | 1015.1 hPa | 0 mm | - | 203 W/m² | - |
| 1778268757 | 22.22° C | 54% | 1015 hPa | 0 mm | - | 251 W/m² | - |
| 1778268454 | 22.78° C | 53% | 1015.1 hPa | 0 mm | - | 257 W/m² | - |
| 1778268151 | 22.78° C | 53% | 1015.2 hPa | 0 mm | - | 274 W/m² | - |
| 1778267848 | 22.78° C | 53% | 1015.3 hPa | 0 mm | - | 204 W/m² | - |
| 1778267545 | 22.78° C | 54% | 1015.3 hPa | 0 mm | - | 245 W/m² | - |
| 1778267242 | 22.78° C | 53% | 1015.4 hPa | 0 mm | - | 306 W/m² | - |
| 1778266938 | 22.78° C | 52% | 1015.6 hPa | 0 mm | - | 261 W/m² | - |
| 1778266635 | 22.78° C | 53% | 1015.8 hPa | 0 mm | - | 278 W/m² | - |
| 1778266333 | 22.78° C | 50% | 1015.7 hPa | 0 mm | - | 323 W/m² | - |
| 1778266030 | 22.78° C | 54% | 1015.7 hPa | 0 mm | - | 436 W/m² | - |
* Rain latest hour (hover to see other rain measurements)
** Current wind speed in m/s (hover to see current wind gust speed)